Date,TemperatureHighF,TemperatureAvgF,TemperatureLowF,DewpointHighF,DewpointAvgF,DewpointLowF,HumidityHigh,HumidityAvg,HumidityLow,PressureMaxIn,PressureMinIn,WindSpeedMaxMPH,WindSpeedAvgMPH,GustSpeedMaxMPH,PrecipitationSumIn
2014-1-1,-5.3,-11.3,-17.2,-15.9,-22.0,-28.4,61,58,54,30.53,30.43,8,1,8,0.00
2014-1-2,-6.2,-14.3,-20.9,-15.6,-24.8,-31.8,63,58,54,30.54,30.13,18,2,19,0.00
2014-1-3,25.9,11.9,-6.1,20.7,5.0,-15.5,81,73,63,30.13,29.27,28,10,36,0.02
2014-1-4,11.1,0.4,-10.7,4.6,-9.8,-23.4,76,62,52,30.34,29.56,36,8,36,0.02
2014-1-5,-10.5,-16.0,-20.5,-23.0,-28.9,-34.0,55,51,46,30.50,30.33,21,7,21,0.00
2014-1-6,-9.5,-17.8,-23.8,-20.8,-31.3,-37.9,57,49,42,30.42,30.11,20,5,20,0.00
2014-1-7,-0.1,-6.7,-12.3,-12.0,-17.8,-22.5,64,57,52,30.31,30.08,13,1,14,0.00
2014-1-8,1.2,-10.3,-17.3,-7.9,-20.4,-27.6,65,60,55,30.46,30.20,22,2,22,0.00
2014-1-9,21.8,15.6,1.2,13.9,7.6,-8.2,75,70,64,30.20,29.66,29,10,31,0.00
2014-1-10,30.7,24.8,18.5,23.5,18.7,12.9,82,77,71,29.66,29.48,18,2,18,0.00
2014-1-11,29.0,24.6,19.7,21.0,17.9,13.3,82,75,68,29.68,29.41,16,2,19,0.00
2014-1-12,43.5,33.9,24.9,32.1,25.5,18.5,82,71,60,29.61,29.26,27,4,27,0.00
2014-1-13,28.1,20.0,15.3,18.5,11.1,6.0,79,68,60,29.70,29.54,21,3,23,0.05
2014-1-14,19.7,13.5,6.2,14.2,5.9,-3.2,80,71,64,30.25,29.61,24,6,24,0.03
2014-1-15,37.7,12.2,-3.4,28.8,4.4,-12.1,86,70,65,30.20,29.34,30,6,30,0.04
2014-1-16,36.7,9.2,-0.6,28.9,1.2,-11.2,80,69,60,30.15,29.35,41,13,41,0.05
2014-1-17,16.7,2.4,-9.2,11.3,-7.2,-18.8,79,63,52,30.16,29.49,20,4,20,0.11
2014-1-18,30.3,17.6,8.8,23.7,11.2,1.7,83,75,66,30.01,29.43,19,4,19,0.11
2014-1-19,31.2,26.0,17.5,23.6,19.7,12.4,82,77,72,29.80,29.51,15,2,16,0.05
2014-1-20,17.5,-1.5,-18.3,12.4,-10.2,-28.9,80,66,56,30.60,29.80,27,9,28,0.05
2014-1-21,7.8,-6.1,-19.8,0.3,-15.4,-30.4,73,63,57,30.56,30.02,22,4,22,0.05
2014-1-22,7.6,-3.3,-11.8,0.1,-12.3,-22.2,71,64,58,30.68,30.04,28,6,28,0.02
2014-1-23,17.2,-6.0,-16.3,5.7,-16.8,-26.7,68,59,48,30.74,29.85,19,3,20,0.02
2014-1-24,34.2,25.3,7.2,29.9,18.0,-9.7,85,73,45,29.86,29.53,31,7,32,0.04
2014-1-25,7.1,3.1,-2.9,-0.8,-9.5,-14.2,72,56,39,30.05,29.45,23,4,24,0.18
2014-1-26,14.1,1.2,-12.7,7.0,-7.5,-23.9,75,66,56,30.28,29.44,36,9,38,0.02
2014-1-27,-8.2,-12.2,-17.4,-20.9,-24.0,-29.0,59,54,49,30.48,30.28,23,5,23,0.00
2014-1-28,1.6,-7.4,-15.9,-12.2,-20.0,-28.0,58,53,47,30.38,30.00,16,4,21,0.00
2014-1-29,25.0,6.8,-10.9,14.2,-3.5,-21.4,69,62,52,30.00,29.53,13,3,18,0.00
2014-1-30,13.1,0.7,-6.4,4.9,-9.8,-17.9,70,60,54,30.04,29.60,23,6,23,0.00
2014-1-31,9.0,-0.0,-10.4,0.3,-11.4,-21.9,67,58,49,30.06,29.84,14,2,16,0.00
2014-2-1,12.0,4.9,-2.8,3.8,-5.3,-12.3,69,62,53,30.22,29.83,17,3,22,0.00
2014-2-2,18.5,6.6,-2.9,4.4,-3.8,-11.4,69,62,50,30.21,30.10,11,1,12,0.01
2014-2-3,18.3,8.1,-2.8,5.9,-2.8,-14.5,71,61,51,30.45,30.12,21,3,21,0.00
2014-2-4,3.4,-3.9,-11.5,-11.0,-16.2,-22.5,59,55,47,30.61,30.45,14,2,15,0.00
2014-2-5,2.4,-1.5,-4.7,-9.2,-12.5,-15.5,65,59,54,30.66,30.50,18,4,18,0.00
2014-2-6,9.2,0.0,-8.5,-0.6,-11.0,-19.7,64,59,54,30.51,30.11,18,5,19,0.00
2014-2-7,11.5,0.9,-6.1,-5.5,-13.1,-19.2,63,51,41,30.11,30.04,12,3,19,0.00
2014-2-8,3.9,-4.6,-13.7,-7.2,-14.8,-23.9,65,61,56,30.33,30.07,16,3,16,0.00
2014-2-9,0.3,-5.8,-10.6,-13.5,-17.4,-21.7,63,56,48,30.46,30.32,17,2,17,0.00
2014-2-10,-0.7,-8.5,-15.3,-13.4,-20.0,-26.0,59,56,50,30.52,30.39,9,0,9,0.00
2014-2-11,20.1,4.6,-13.0,14.6,-3.8,-23.3,79,67,59,30.39,29.82,27,7,27,0.00
2014-2-12,16.2,5.7,-4.4,9.6,-4.8,-13.3,75,61,54,30.21,29.46,29,5,30,0.00
2014-2-13,26.6,7.7,-4.2,21.5,-0.3,-13.6,82,69,60,29.90,29.31,37,9,37,0.04
2014-2-14,6.8,-1.9,-10.5,-4.7,-12.3,-20.9,67,60,52,30.13,29.89,13,1,13,0.00
2014-2-15,22.5,9.5,0.1,10.7,0.2,-8.6,69,65,59,30.21,29.71,23,6,27,0.00
2014-2-16,19.1,8.8,-7.3,9.6,-0.4,-16.1,70,66,61,30.20,29.77,29,7,29,0.00
2014-2-17,37.7,26.1,19.1,25.9,18.4,9.6,81,73,61,29.78,29.55,23,4,25,0.07
2014-2-18,38.9,28.6,16.6,27.3,19.8,10.2,78,70,60,29.76,29.49,16,2,16,0.00
2014-2-19,39.3,28.2,13.1,27.6,20.2,7.3,82,72,59,29.77,29.49,21,3,21,0.00
2014-2-20,34.4,21.8,5.3,28.6,15.0,-2.8,83,75,65,29.73,29.51,21,5,26,0.00
2014-2-21,13.6,6.0,-0.2,2.5,-4.1,-9.8,69,62,58,29.85,29.64,27,10,27,0.00
2014-2-22,13.5,5.3,-1.5,0.3,-6.4,-12.4,62,58,52,30.17,29.85,23,8,23,0.00
2014-2-23,14.8,7.1,-0.7,1.1,-4.7,-11.9,63,58,52,30.36,30.17,21,8,21,0.00
2014-2-24,3.9,-1.6,-8.6,-6.5,-13.4,-20.3,64,56,48,30.41,30.35,16,4,16,0.00
2014-2-25,1.8,-3.7,-8.4,-12.2,-16.7,-20.2,56,53,48,30.45,30.31,22,6,22,0.00
2014-2-26,16.2,2.2,-10.4,3.1,-10.2,-23.3,66,55,48,30.33,29.73,38,9,38,0.00
2014-2-27,-2.1,-8.8,-17.4,-14.0,-23.8,-31.5,56,47,39,30.23,29.90,18,3,18,0.00
2014-2-28,12.5,0.5,-8.5,-0.8,-12.3,-21.9,57,54,51,30.37,29.78,28,8,28,0.00
2014-3-1,-7.0,-11.8,-16.3,-21.8,-27.0,-31.5,52,46,39,30.61,30.36,18,4,18,0.00
2014-3-2,5.4,-7.2,-15.7,-10.9,-22.1,-30.9,61,47,41,30.59,30.52,14,4,15,0.00
2014-3-3,8.3,1.5,-9.6,-0.6,-8.3,-19.7,68,63,55,30.53,30.19,14,2,14,0.06
2014-3-4,15.5,8.9,2.7,2.5,-1.0,-7.2,68,63,55,30.35,30.17,12,1,12,0.01
2014-3-5,22.8,14.0,-0.1,13.5,4.7,-9.6,74,66,54,30.39,30.08,28,6,28,0.00
2014-3-6,34.7,26.6,15.2,27.8,20.1,8.4,83,76,71,30.08,29.68,24,10,29,0.00
2014-3-7,32.6,18.3,6.8,28.0,10.7,-1.8,83,72,65,30.35,29.73,25,7,25,0.00
2014-3-8,28.9,16.9,4.8,16.7,6.7,-3.4,75,64,45,30.37,29.95,16,1,16,0.00
2014-3-9,47.9,35.8,23.2,33.7,27.0,16.2,83,71,55,29.95,29.61,17,2,17,0.00
2014-3-10,49.7,42.1,37.4,37.0,33.5,29.9,82,71,58,29.78,29.59,15,4,16,0.00
2014-3-11,37.4,30.1,18.9,30.2,21.6,10.6,82,71,55,30.22,29.77,24,7,24,0.00
2014-3-12,31.0,22.7,14.7,25.5,13.2,4.3,82,67,54,30.20,29.87,12,3,15,0.00
2014-3-13,57.4,40.8,24.7,37.5,30.0,20.6,86,68,42,29.87,29.50,21,3,21,0.00
2014-3-14,38.5,29.0,16.1,30.5,20.9,8.1,82,72,62,30.04,29.58,23,9,23,0.01
2014-3-15,22.7,14.1,7.4,8.2,3.2,-2.3,71,62,48,30.53,30.04,23,10,24,0.00
2014-3-16,30.6,17.4,0.2,20.0,5.8,-7.7,72,61,42,30.54,29.73,27,6,27,0.00
2014-3-17,42.7,33.6,27.0,30.9,25.2,19.5,82,71,62,29.73,29.48,19,3,25,0.00
2014-3-18,34.2,30.7,28.3,27.2,25.4,23.7,85,80,73,29.96,29.67,18,6,18,0.00
2014-3-19,41.7,32.2,24.5,27.6,22.8,18.1,82,69,50,29.99,29.93,16,1,16,0.00
2014-3-20,45.2,33.6,21.7,34.5,26.7,17.3,90,76,58,29.97,29.75,16,1,16,0.00
2014-3-21,39.4,25.4,10.9,35.1,18.6,0.3,88,75,59,30.41,29.69,36,10,37,0.18
2014-3-22,19.2,13.3,8.0,5.8,1.1,-3.4,70,58,49,30.55,30.41,24,6,25,0.00
2014-3-23,27.4,16.9,6.3,10.7,3.5,-2.9,71,56,37,30.53,30.33,15,1,16,0.00
2014-3-24,32.6,21.1,11.8,15.5,9.5,3.4,79,62,31,30.35,30.17,29,6,32,0.02
2014-3-25,28.7,16.9,6.3,6.7,1.8,-3.6,73,53,29,30.33,30.07,16,4,17,0.01
2014-3-26,44.6,30.9,16.2,24.5,15.4,6.2,69,53,38,30.07,29.52,30,6,30,0.00
2014-3-27,33.8,28.7,18.8,24.0,18.1,6.9,76,64,50,29.97,29.51,31,13,31,0.00
2014-3-28,33.5,22.7,11.9,9.5,3.9,0.2,60,45,25,30.26,29.97,20,4,23,0.00
2014-3-29,44.9,34.2,23.3,30.9,18.3,9.0,73,53,32,30.26,29.80,33,8,35,0.00
2014-3-30,50.1,39.8,33.0,37.3,31.6,27.2,82,73,60,29.88,29.74,24,7,24,0.00
2014-3-31,36.8,27.0,16.0,31.2,21.8,11.0,83,81,78,29.85,29.64,41,18,41,0.43
2014-4-1,25.9,17.1,11.1,13.6,8.9,3.8,81,70,57,30.19,29.81,35,8,35,0.02
2014-4-2,36.7,23.3,9.4,25.9,15.3,3.1,82,71,54,30.24,30.12,12,1,12,0.00
2014-4-3,38.0,33.3,29.8,31.1,28.6,25.9,88,83,72,30.13,29.97,13,0,13,0.05
2014-4-4,34.6,31.3,28.0,29.0,25.6,22.3,88,79,68,30.07,29.97,23,5,23,0.00
2014-4-5,58.9,40.2,27.8,41.3,30.7,21.6,81,70,48,30.04,29.80,18,3,20,0.00
2014-4-6,61.2,43.3,27.2,43.5,34.7,23.6,89,73,43,29.87,29.76,15,0,15,0.13
2014-4-7,55.9,44.3,34.8,41.8,37.1,30.8,88,77,55,29.98,29.82,20,3,20,0.04
2014-4-8,56.0,41.9,30.2,35.5,30.8,25.7,85,67,39,30.11,29.83,18,2,18,0.00
2014-4-9,78.8,55.4,35.2,47.2,36.7,28.1,75,53,20,29.84,29.40,36,5,36,0.00
2014-4-10,59.1,48.2,37.6,34.6,25.4,18.5,63,43,21,29.91,29.69,31,7,36,0.00
2014-4-11,62.2,50.1,40.3,40.2,35.1,25.9,75,58,38,29.95,29.87,17,2,18,0.00
2014-4-12,61.0,49.1,38.5,47.1,40.7,33.2,87,73,58,29.92,29.71,25,4,25,0.28
2014-4-13,39.5,31.0,25.2,33.1,20.4,12.2,78,65,52,30.21,29.88,30,12,30,0.00
2014-4-14,33.2,25.2,17.9,15.4,9.8,5.8,66,52,39,30.24,30.19,23,8,26,0.00
2014-4-15,34.4,24.1,10.2,13.5,5.9,0.3,74,48,28,30.23,29.98,13,2,13,0.00
2014-4-16,37.6,30.8,26.3,23.9,20.9,11.4,82,67,42,30.24,29.96,21,6,21,0.10
2014-4-17,45.9,34.0,22.5,20.6,15.8,9.2,71,50,24,30.36,30.24,12,2,12,0.00
2014-4-18,53.2,41.2,31.2,29.8,24.8,18.7,66,53,36,30.30,29.86,32,6,36,0.00
2014-4-19,69.0,55.8,42.2,41.6,33.3,22.5,71,47,18,30.03,29.73,44,8,44,0.00
2014-4-20,76.7,55.3,32.2,41.2,33.0,21.2,88,51,13,30.05,29.86,19,2,19,0.00
2014-4-21,60.7,50.7,38.7,35.7,32.1,29.0,70,50,32,30.15,29.93,28,5,28,0.00
2014-4-22,63.6,48.3,31.2,37.6,31.5,25.8,83,56,29,30.15,29.98,13,1,15,0.00
2014-4-23,47.8,43.6,39.5,39.3,34.8,27.4,87,73,49,29.98,29.78,28,6,34,0.45
2014-4-24,51.9,43.3,39.9,44.8,38.9,35.9,90,85,72,29.82,29.67,18,2,19,0.33
2014-4-25,53.6,44.6,38.0,41.7,38.2,31.1,91,79,61,29.95,29.72,15,2,15,0.33
2014-4-26,55.5,43.8,29.4,37.5,32.0,25.2,86,65,39,29.98,29.84,20,4,20,0.33
2014-4-27,43.0,40.0,37.5,36.4,34.4,32.9,86,80,74,29.87,29.66,26,10,29,1.05
2014-4-28,40.6,39.7,37.8,36.3,35.3,33.6,87,84,80,29.90,29.62,23,8,25,1.10
2014-4-29,55.2,44.2,36.0,36.3,32.4,27.1,86,64,44,29.98,29.89,31,11,31,0.13
2014-4-30,42.9,40.1,37.2,36.5,34.7,30.1,87,81,61,29.98,29.94,26,11,26,0.33
2014-5-1,55.2,44.6,38.2,40.0,35.5,31.9,85,71,50,29.94,29.81,25,8,25,0.00
2014-5-2,60.6,48.5,40.6,39.4,35.2,30.5,77,61,34,29.81,29.58,36,6,38,0.33
2014-5-3,51.1,43.5,31.4,35.6,29.9,23.0,80,59,43,30.07,29.78,28,6,28,0.00
2014-5-4,48.0,38.7,26.2,31.9,26.3,20.9,83,62,43,30.17,30.00,14,1,14,0.01
2014-5-5,60.1,46.9,32.7,42.1,36.4,28.3,86,69,45,30.07,29.92,15,1,15,0.00
2014-5-6,64.1,52.0,43.2,42.8,36.7,27.5,76,58,32,29.95,29.78,17,2,18,0.01
2014-5-7,68.7,56.4,48.4,54.7,44.9,41.5,89,66,45,29.81,29.71,19,3,19,0.01
2014-5-8,50.0,47.9,45.2,47.3,45.0,42.5,91,90,88,29.84,29.66,24,10,26,0.32
2014-5-9,61.8,51.0,43.7,43.6,37.8,26.0,91,65,27,29.78,29.63,24,6,24,0.24
2014-5-10,70.2,55.1,36.4,51.3,38.9,29.5,79,58,28,29.81,29.67,17,2,20,0.03
2014-5-11,60.4,54.0,47.6,52.0,48.6,43.5,89,82,73,29.97,29.71,17,2,18,0.15
2014-5-12,47.5,43.7,41.4,43.5,40.6,38.4,90,88,86,29.97,29.89,33,10,33,0.48
2014-5-13,52.2,45.7,36.9,40.2,35.3,31.0,87,68,47,30.18,29.95,34,8,34,0.01
2014-5-14,47.6,41.4,35.0,34.8,31.1,28.2,84,67,52,30.33,30.17,18,4,18,0.00
2014-5-15,51.7,42.5,34.2,31.7,28.4,24.3,77,59,36,30.32,30.15,14,2,15,0.00
2014-5-16,61.3,47.2,30.0,32.5,28.0,23.2,78,51,27,30.15,30.02,21,1,22,0.00
2014-5-17,71.0,54.2,34.8,39.8,33.0,24.9,80,49,19,30.03,29.92,22,1,22,0.00
2014-5-18,74.3,61.5,45.5,50.8,41.9,32.2,70,50,29,29.97,29.82,19,2,19,0.00
2014-5-19,64.6,59.3,52.4,56.0,50.0,40.2,91,73,47,29.83,29.61,30,8,32,0.48
2014-5-20,75.2,60.6,45.8,54.2,48.7,42.4,94,68,38,29.94,29.70,26,4,28,0.48
2014-5-21,67.2,56.1,48.2,47.8,44.6,41.1,82,67,46,30.19,29.94,20,5,20,0.48
2014-5-22,74.2,57.4,39.4,47.2,41.6,35.6,91,61,25,30.24,30.14,8,0,8,0.48
2014-5-23,82.3,67.2,50.6,54.3,46.2,39.7,72,49,29,30.18,29.99,20,4,21,0.48
2014-5-24,89.0,75.0,59.4,62.3,51.5,45.8,62,46,25,30.01,29.89,22,3,24,0.48
2014-5-25,87.3,71.2,59.9,61.6,53.6,45.3,89,57,28,29.95,29.80,21,3,23,0.48
2014-5-26,82.5,67.8,57.2,60.9,56.4,52.5,93,71,37,29.98,29.87,17,3,17,0.00
2014-5-27,88.3,71.6,55.1,63.8,56.1,48.8,82,60,33,29.96,29.89,17,0,17,0.00
2014-5-28,87.5,75.3,62.8,63.1,58.4,50.2,86,59,33,30.05,29.96,16,3,16,0.00
2014-5-29,88.0,76.2,63.6,58.3,45.9,30.0,67,39,13,30.07,29.93,23,4,24,0.00
2014-5-30,91.7,74.4,65.4,65.6,56.8,45.3,90,57,34,30.04,29.92,24,3,24,0.08
2014-5-31,69.4,65.9,63.7,66.3,63.4,61.1,95,92,86,30.02,29.83,10,0,10,0.18
2014-6-1,74.7,64.7,58.9,63.4,60.5,57.2,96,87,62,29.85,29.68,11,0,11,0.07
2014-6-2,62.9,59.2,51.7,60.0,53.7,46.7,95,83,61,29.91,29.64,29,4,29,0.03
2014-6-3,74.5,62.3,49.7,53.6,48.9,44.1,89,65,35,29.94,29.79,13,0,14,0.00
2014-6-4,79.7,67.8,53.1,56.0,50.6,45.3,90,58,31,29.91,29.80,18,1,23,0.00
2014-6-5,73.3,65.0,57.2,60.2,56.2,49.8,94,74,58,29.84,29.75,22,1,22,0.77
2014-6-6,62.7,58.5,52.9,57.4,46.6,39.3,91,66,47,30.08,29.82,22,2,22,0.01
2014-6-7,71.7,61.3,52.1,47.3,40.2,29.7,81,51,22,30.11,30.05,18,1,18,0.00
2014-6-8,78.0,63.7,46.9,47.0,40.4,32.5,79,47,21,30.10,30.00,18,0,18,0.00
2014-6-9,80.8,68.2,55.7,54.3,47.0,38.0,79,50,23,30.02,29.89,20,1,20,0.00
2014-6-10,83.0,70.9,55.5,55.4,50.8,45.9,74,51,31,29.93,29.79,18,1,18,0.00
2014-6-11,71.5,64.2,52.4,61.1,56.8,49.3,91,78,56,29.85,29.71,31,4,32,0.45
2014-6-12,71.1,59.2,50.5,49.5,45.0,39.3,89,63,34,29.99,29.84,25,6,28,0.02
2014-6-13,76.7,64.1,46.8,50.4,46.0,30.0,87,56,20,30.00,29.77,17,1,17,0.00
2014-6-14,71.0,63.3,57.2,61.9,56.8,47.2,93,80,49,29.83,29.49,28,4,28,0.73
2014-6-15,72.8,63.4,58.4,59.3,56.0,50.4,95,79,48,29.70,29.47,26,2,26,1.31
2014-6-16,76.2,65.8,55.9,61.4,55.5,49.3,87,70,54,29.82,29.68,15,1,15,0.04
2014-6-17,81.7,70.6,57.2,65.6,60.2,54.3,91,71,52,29.88,29.72,16,2,16,0.00
2014-6-18,84.8,72.5,61.1,68.4,61.4,55.6,83,69,56,29.89,29.80,19,3,19,0.00
2014-6-19,74.4,67.3,57.0,71.0,63.2,53.0,95,87,71,29.92,29.67,24,2,25,1.43
2014-6-20,81.2,68.1,54.2,65.2,57.2,51.4,93,70,45,29.92,29.80,20,2,23,0.00
2014-6-21,89.0,73.1,60.1,68.6,62.2,56.1,90,71,45,29.86,29.75,26,1,26,0.25
2014-6-22,81.7,72.8,63.6,63.9,58.8,49.8,84,64,34,29.85,29.80,17,2,17,0.00
2014-6-23,81.3,71.6,61.9,60.3,57.8,54.5,82,63,41,29.89,29.83,16,1,16,0.00
2014-6-24,69.5,65.4,62.1,62.6,59.8,57.8,90,82,73,30.01,29.88,14,2,15,0.03
2014-6-25,73.5,65.3,60.3,62.5,59.7,57.7,93,83,66,30.05,29.97,11,0,11,0.01
2014-6-26,82.4,69.3,59.6,70.4,62.7,56.1,93,80,64,30.01,29.75,23,3,23,0.14
2014-6-27,83.7,73.9,69.5,71.7,68.3,65.1,95,83,65,29.78,29.60,25,4,28,1.61
2014-6-28,81.5,74.0,68.0,71.7,67.2,59.7,95,80,57,29.62,29.47,36,4,36,0.08
2014-6-29,81.8,72.9,64.2,62.2,57.3,51.2,84,61,38,29.58,29.51,28,2,30,0.01
2014-6-30,75.8,69.5,64.8,63.3,55.3,49.4,89,62,47,29.53,29.44,37,6,37,0.15
2014-7-1,65.6,58.4,54.4,62.0,53.7,49.4,92,85,76,29.99,29.48,33,6,33,0.26
2014-7-2,73.6,63.1,52.1,53.5,49.5,45.9,81,63,41,30.14,29.99,16,1,16,0.26
2014-7-3,77.7,65.4,51.2,56.5,50.4,45.3,92,62,32,30.20,30.13,7,0,8,0.00
2014-7-4,83.3,71.8,60.1,69.3,60.4,51.2,87,68,57,30.17,29.89,26,4,28,0.14
2014-7-5,94.7,80.6,67.3,77.2,69.9,63.4,89,71,48,29.90,29.66,19,1,26,0.00
2014-7-6,83.5,76.1,68.2,73.5,63.0,54.8,91,66,41,29.80,29.68,23,3,23,0.03
2014-7-7,81.0,72.3,62.4,63.3,58.2,52.2,79,62,41,29.77,29.70,24,4,26,0.00
2014-7-8,74.9,65.9,58.9,55.9,52.1,44.6,86,64,36,29.95,29.75,21,4,22,0.00
2014-7-9,76.0,66.4,56.8,57.8,52.5,47.1,90,64,37,30.04,29.93,15,1,15,0.00
2014-7-10,81.5,69.1,57.6,67.8,58.4,50.0,93,70,48,29.99,29.82,15,2,18,0.27
2014-7-11,87.7,77.1,68.6,71.4,64.3,52.3,92,68,34,30.03,29.78,13,1,13,0.00
2014-7-12,80.5,69.7,58.6,59.5,56.3,51.6,87,64,42,30.06,29.90,24,2,24,0.00
2014-7-13,74.7,65.1,55.3,54.5,47.0,40.0,87,56,30,29.99,29.90,30,5,31,0.00
2014-7-14,67.7,59.0,49.0,50.5,47.1,42.4,81,65,52,30.16,29.95,29,7,29,0.00
2014-7-15,73.9,62.2,51.8,53.3,49.1,46.2,86,65,40,30.18,30.06,19,1,19,0.00
2014-7-16,78.0,65.4,50.4,54.6,50.6,46.9,91,62,38,30.09,29.95,11,0,11,0.00
2014-7-17,81.3,70.9,57.4,60.2,54.5,49.0,80,58,35,29.97,29.87,13,0,13,0.00
2014-7-18,83.8,73.2,62.7,61.6,58.0,54.9,76,61,38,29.89,29.74,27,4,27,0.00
2014-7-19,81.0,71.8,62.2,62.3,57.2,51.3,89,62,39,29.86,29.78,12,1,14,0.00
2014-7-20,92.6,79.1,67.1,76.7,69.6,58.5,90,74,54,29.78,29.64,21,2,21,0.00
2014-7-21,89.6,78.8,66.6,78.0,72.7,63.2,94,82,64,29.84,29.65,40,2,40,0.85
2014-7-22,78.2,70.3,62.0,65.1,60.0,56.3,93,72,48,30.25,29.75,24,4,24,0.00
2014-7-23,78.4,67.5,56.9,61.4,57.8,53.8,91,73,52,30.30,30.16,11,0,11,0.00
2014-7-24,76.5,67.9,59.8,62.9,59.2,55.5,87,74,58,30.17,29.71,26,2,26,0.05
2014-7-25,82.1,71.5,61.4,69.2,62.0,53.0,87,73,40,29.82,29.71,21,1,21,0.00
2014-7-26,80.9,69.3,56.4,66.9,55.7,50.4,90,65,37,29.81,29.77,31,5,31,0.00
2014-7-27,68.4,63.5,59.1,57.6,56.0,54.1,86,77,65,30.20,29.80,25,7,25,0.00
2014-7-28,75.1,65.6,59.3,57.8,53.9,48.9,87,68,44,30.28,30.18,14,0,14,0.00
2014-7-29,79.0,66.3,52.5,57.8,53.7,48.8,90,67,41,30.19,30.08,13,0,15,0.00
2014-7-30,81.5,68.8,54.3,57.9,54.3,50.8,90,63,37,30.14,30.04,8,0,12,0.00
2014-7-31,83.3,70.2,55.6,64.0,58.1,52.7,93,68,40,30.06,29.99,11,0,11,0.00
2014-8-1,83.3,71.3,59.7,63.7,59.1,53.7,90,68,38,30.08,30.01,13,1,13,0.00
2014-8-2,85.7,71.5,57.0,65.1,60.0,54.6,94,70,38,30.10,30.04,13,0,13,0.00
2014-8-3,81.8,69.8,59.5,65.1,60.5,51.8,93,74,43,30.14,30.07,16,1,16,0.17
2014-8-4,79.2,66.1,51.3,57.0,52.7,47.7,89,65,39,30.17,30.09,9,0,10,0.00
2014-8-5,80.2,67.7,53.4,59.1,55.6,50.5,93,68,45,30.16,30.09,4,0,6,0.00
2014-8-6,81.0,69.6,56.1,63.9,59.4,53.3,93,72,50,30.11,30.03,8,0,8,0.00
2014-8-7,80.8,71.5,60.9,64.2,60.5,57.3,90,70,51,30.07,29.98,14,1,15,0.00
2014-8-8,81.7,71.5,60.9,64.5,60.7,55.9,84,70,49,30.07,30.00,15,2,17,0.00
2014-8-9,78.8,70.9,63.6,65.6,62.2,58.6,87,74,60,30.07,30.01,16,2,16,0.00
2014-8-10,78.0,69.0,63.7,66.4,60.6,52.5,91,76,47,30.12,30.02,18,2,21,0.00
2014-8-11,75.3,65.8,56.2,55.9,50.8,45.0,82,61,35,30.20,30.11,24,4,26,0.00
2014-8-12,82.8,68.1,50.7,55.7,51.5,46.0,88,59,34,30.14,30.00,15,1,15,0.00
2014-8-13,83.2,70.9,59.6,62.8,57.3,52.3,87,64,35,30.11,30.03,10,0,10,0.00
2014-8-14,79.8,70.8,64.5,65.1,60.6,55.8,79,70,54,30.07,29.92,16,2,20,0.00
2014-8-15,84.1,74.7,66.1,71.1,66.7,61.8,89,77,63,29.93,29.81,15,2,16,0.01
2014-8-16,87.0,74.6,65.8,72.6,68.3,63.7,95,82,56,29.92,29.80,14,1,15,0.54
2014-8-17,75.5,69.3,63.8,68.5,65.9,60.6,96,89,77,29.95,29.84,12,0,12,0.07
2014-8-18,77.0,68.9,64.0,66.3,63.5,61.6,96,84,64,29.84,29.69,15,2,15,0.04
2014-8-19,81.3,70.5,60.1,66.3,62.8,58.1,94,78,56,29.78,29.71,12,0,12,0.00
2014-8-20,83.6,73.1,62.6,69.0,64.8,59.3,91,76,57,29.81,29.76,15,2,18,0.00
2014-8-21,77.8,71.8,67.2,70.0,67.1,64.7,94,85,76,29.87,29.65,15,0,15,0.04
2014-8-22,72.6,68.1,64.1,69.4,65.3,62.2,97,91,82,30.07,29.87,16,2,16,0.01
2014-8-23,72.5,68.0,63.7,69.6,65.4,61.7,96,92,87,30.07,29.76,13,2,14,0.08
2014-8-24,80.0,71.6,61.6,70.6,62.7,51.2,95,75,48,29.81,29.65,19,3,19,0.67
2014-8-25,64.2,59.3,54.9,52.3,48.1,44.3,76,67,60,30.10,29.79,25,4,27,0.00
2014-8-26,71.1,59.5,49.9,56.1,50.1,44.8,90,72,48,30.21,30.10,8,0,12,0.04
2014-8-27,74.0,62.5,50.1,59.7,55.6,48.0,95,80,59,30.20,30.06,13,0,13,0.00
2014-8-28,70.8,66.1,63.2,64.9,61.1,58.2,93,84,76,30.06,29.84,17,2,19,0.02
2014-8-29,75.7,67.0,60.6,66.2,62.6,55.5,95,86,67,29.87,29.75,20,1,21,0.00
2014-8-30,70.2,61.7,54.9,59.8,55.8,50.5,90,81,68,29.93,29.77,20,2,20,0.00
2014-8-31,72.8,65.3,57.9,65.6,60.7,55.0,95,85,70,29.82,29.55,19,1,20,0.38
2014-9-1,77.1,62.9,53.1,58.7,54.3,50.2,92,75,45,29.81,29.65,19,1,21,0.00
2014-9-2,79.2,67.4,53.2,58.4,54.0,47.7,91,64,43,29.84,29.72,14,0,16,0.00
2014-9-3,77.0,66.4,55.5,66.1,59.5,52.1,90,79,66,29.76,29.66,14,1,16,0.00
2014-9-4,74.8,66.7,54.5,64.7,58.7,48.0,95,77,48,29.99,29.48,26,4,32,1.66
2014-9-5,70.7,59.0,48.4,50.5,47.5,43.3,84,68,42,30.19,29.99,17,2,19,0.00
2014-9-6,79.0,63.1,47.2,57.2,49.3,41.9,91,64,28,30.18,30.03,21,1,21,0.00
2014-9-7,81.9,66.3,52.0,63.0,54.0,46.4,83,66,43,30.03,29.81,18,2,19,0.00
2014-9-8,82.5,68.6,57.2,64.6,58.4,52.8,86,71,53,29.82,29.67,19,3,19,0.00
2014-9-9,57.7,52.6,48.5,53.5,48.9,45.9,91,87,81,29.98,29.81,23,8,27,0.24
2014-9-10,56.1,49.2,45.9,45.9,40.0,35.1,91,72,47,30.22,29.93,25,9,31,0.00
2014-9-11,54.9,47.2,42.3,39.0,36.1,30.5,83,67,40,30.43,30.21,16,3,16,0.01
2014-9-12,55.3,46.3,40.0,38.7,33.2,25.6,81,63,33,30.48,30.29,9,0,13,0.00
2014-9-13,64.1,49.6,35.7,43.9,37.3,30.4,82,65,40,30.30,29.97,18,2,22,0.00
2014-9-14,59.9,50.4,42.0,44.9,40.7,36.9,83,70,54,30.17,30.01,16,1,17,0.00
2014-9-15,66.0,54.1,42.7,41.2,38.1,32.4,85,58,32,30.26,30.13,17,1,17,0.00
2014-9-16,72.0,56.8,40.5,47.3,40.3,33.2,77,56,29,30.13,29.91,12,0,12,0.00
2014-9-17,73.3,58.6,44.1,53.0,47.6,40.8,91,70,40,30.02,29.89,10,1,12,0.00
2014-9-18,74.2,59.0,42.6,60.7,51.2,39.9,93,77,61,30.01,29.76,23,3,23,0.00
2014-9-19,78.8,68.0,60.4,66.9,59.2,54.1,86,74,55,29.77,29.56,18,3,20,0.00
2014-9-20,70.8,59.6,50.3,59.6,52.2,47.2,93,77,57,29.96,29.69,26,2,30,0.07
2014-9-21,65.7,55.3,49.2,52.6,48.5,44.9,88,78,59,30.24,29.96,12,1,14,0.00
2014-9-22,76.7,59.5,43.7,52.8,46.8,40.8,91,67,34,30.21,30.04,12,0,12,0.00
2014-9-23,74.8,61.6,54.1,58.0,50.6,46.6,89,68,42,30.06,30.02,20,3,22,0.01
2014-9-24,66.0,61.0,57.0,59.7,56.9,54.2,93,87,78,30.08,29.98,13,2,18,0.19
2014-9-25,82.8,65.9,54.7,67.4,59.4,52.7,95,81,54,30.13,30.03,13,1,13,0.18
2014-9-26,81.4,70.4,60.3,62.6,58.7,56.3,90,69,43,30.06,29.96,21,4,23,0.18
2014-9-27,83.8,72.2,62.2,60.5,57.7,54.9,83,63,38,30.02,29.94,19,4,19,0.18
2014-9-28,68.1,59.3,51.5,56.7,52.0,48.7,91,77,66,30.20,30.02,24,6,24,0.09
2014-9-29,64.2,53.2,46.8,49.9,46.8,42.0,93,80,55,30.21,30.06,17,3,17,0.18
2014-9-30,60.1,51.6,42.8,52.2,44.2,39.0,87,76,59,30.06,29.59,28,3,34,0.01
2014-10-1,69.8,62.1,57.2,57.7,53.3,49.5,91,74,53,29.79,29.58,24,3,29,0.00
2014-10-2,68.5,55.8,45.4,49.8,43.2,32.9,84,65,29,29.85,29.73,27,4,29,0.00
2014-10-3,45.6,41.7,38.0,36.7,26.0,21.1,78,54,40,29.96,29.84,35,12,43,0.01
2014-10-4,45.8,39.0,32.7,28.0,24.7,23.0,71,57,41,29.95,29.69,24,6,24,0.18
2014-10-5,53.2,43.5,37.1,33.9,28.6,22.7,75,57,35,29.70,29.53,25,5,25,0.00
2014-10-6,61.0,46.0,35.4,40.0,31.8,24.4,82,60,34,29.55,29.35,30,6,34,0.00
2014-10-7,56.4,49.2,37.0,39.2,31.1,20.2,79,52,25,29.87,29.46,32,6,32,0.18
2014-10-8,51.7,42.3,32.8,31.5,27.6,23.5,79,58,34,30.15,29.87,19,1,19,0.00
2014-10-9,52.6,38.1,27.2,32.8,27.0,21.9,84,66,39,30.27,30.14,14,1,15,0.00
2014-10-10,56.7,41.0,24.4,34.5,27.2,20.0,86,61,33,30.31,30.17,13,0,13,0.00
2014-10-11,61.8,47.9,32.3,34.2,29.0,23.7,71,50,29,30.18,29.75,34,4,34,0.00
2014-10-12,57.4,50.4,44.5,47.0,39.4,31.9,90,67,49,29.76,29.62,20,3,21,0.05
2014-10-13,64.1,52.4,44.7,48.0,44.2,38.6,93,76,44,29.94,29.73,15,2,17,0.12
2014-10-14,65.8,49.2,33.6,42.6,36.1,29.1,88,64,30,30.03,29.92,1,0,2,0.00
2014-10-15,67.3,52.8,39.1,38.5,33.2,29.9,73,50,25,30.00,29.71,20,2,20,0.00
2014-10-16,68.7,56.5,49.2,47.5,40.4,31.5,86,56,40,29.70,29.50,29,8,32,0.09
2014-10-17,49.2,44.3,42.2,42.5,38.1,35.9,82,79,76,30.21,29.70,30,8,30,0.00
2014-10-18,44.2,42.2,41.0,37.5,36.2,35.2,83,79,76,30.24,29.94,15,1,16,0.00
2014-10-19,68.3,51.2,37.6,46.3,39.2,33.3,88,67,35,29.94,29.79,23,3,23,0.00
2014-10-20,62.7,48.6,38.3,44.5,38.1,33.3,83,68,48,30.08,29.92,9,0,9,0.00
2014-10-21,64.7,52.0,40.3,42.4,39.0,34.6,83,63,42,30.08,29.90,34,9,34,0.00
2014-10-22,65.4,55.9,50.9,52.0,45.0,39.8,89,68,53,29.92,29.83,30,7,30,0.05
2014-10-23,70.4,53.2,39.0,47.9,40.5,34.6,91,66,28,29.94,29.82,14,1,14,0.01
2014-10-24,75.5,56.2,41.6,44.0,38.0,29.6,83,55,27,29.95,29.77,22,3,23,0.00
2014-10-25,60.4,48.9,37.8,33.0,27.5,20.4,63,45,22,30.12,29.95,21,4,21,0.00
2014-10-26,63.8,49.8,34.0,28.6,23.6,16.8,60,39,16,30.01,29.53,28,6,32,0.00
2014-10-27,51.2,45.7,39.5,41.5,33.0,27.8,78,62,44,29.69,29.52,17,1,17,0.00
2014-10-28,43.2,39.5,37.0,36.8,30.3,25.6,85,70,61,30.09,29.67,29,8,29,0.01
2014-10-29,41.8,37.6,33.9,31.0,27.1,24.5,74,66,57,30.16,30.00,17,2,17,0.00
2014-10-30,39.9,35.8,25.2,35.8,29.0,16.7,90,77,59,30.56,29.99,25,7,26,0.08
2014-10-31,38.9,27.3,14.4,22.4,16.0,8.9,81,64,39,30.64,30.36,17,2,17,0.00
2014-11-1,47.2,36.8,28.5,19.4,16.9,14.5,63,45,29,30.36,29.91,40,11,40,0.00
2014-11-2,55.0,44.4,37.0,31.1,25.2,19.1,61,47,36,29.92,29.74,26,8,26,0.00
2014-11-3,50.6,44.0,37.8,35.8,31.4,26.8,72,61,53,29.88,29.73,21,4,23,0.00
2014-11-4,42.4,37.5,29.1,29.9,26.1,21.3,75,64,52,29.97,29.88,27,5,27,0.00
2014-11-5,36.0,33.5,29.4,33.3,29.4,22.5,90,85,71,30.22,29.93,16,3,16,0.44
2014-11-6,42.1,34.2,29.5,34.0,28.9,25.7,87,81,67,30.33,30.08,16,2,16,0.00
2014-11-7,50.1,39.4,34.7,45.0,32.6,23.9,83,77,63,30.08,29.58,35,9,37,0.04
2014-11-8,39.5,36.0,32.3,30.4,24.2,19.9,78,62,51,30.11,29.78,25,5,25,0.00
2014-11-9,36.0,26.4,22.0,29.2,15.9,10.0,85,64,53,29.88,29.78,14,3,17,0.05
2014-11-10,22.4,21.3,18.7,13.8,11.2,7.3,71,65,58,30.18,29.82,26,9,27,0.00
2014-11-11,21.5,18.4,14.2,11.3,9.6,6.8,72,68,56,30.35,30.20,17,6,20,0.00
2014-11-12,24.6,19.8,13.0,17.4,13.4,5.7,80,76,71,30.48,30.34,26,8,26,0.02
2014-11-13,18.5,14.9,8.0,12.2,8.6,-0.4,76,76,67,30.48,30.41,16,6,22,0.01
2014-11-14,20.7,11.2,4.4,7.1,1.5,-3.1,72,65,53,30.41,30.30,6,1,9,0.00
2014-11-15,20.6,12.1,3.5,9.6,2.9,-3.8,73,66,53,30.30,30.10,16,2,17,0.00
2014-11-16,20.9,11.5,5.0,11.6,1.1,-4.8,73,63,51,30.10,29.78,33,6,33,0.00
2014-11-17,14.1,11.3,8.7,3.5,0.4,-2.3,67,61,55,30.11,30.02,29,9,29,0.00
2014-11-18,22.2,16.5,8.1,12.3,6.1,-1.1,72,63,54,30.07,29.70,26,4,27,0.00
2014-11-19,25.4,19.9,9.4,14.5,8.0,-0.5,69,59,50,30.06,29.77,29,10,30,0.00
2014-11-20,19.4,10.8,3.5,3.1,-1.0,-4.8,71,59,42,30.19,30.05,13,1,13,0.00
2014-11-21,31.4,21.5,8.8,22.7,13.2,-0.3,80,70,61,30.13,29.70,22,6,22,0.00
2014-11-22,42.4,31.3,22.0,30.9,24.8,17.4,88,77,61,29.71,29.39,22,3,22,0.01
2014-11-23,42.7,30.8,16.3,36.9,24.9,10.7,90,79,59,29.60,29.39,24,5,27,0.01
2014-11-24,17.6,11.9,6.1,10.7,3.9,-2.9,78,70,64,30.02,29.59,29,7,30,0.02
2014-11-25,25.5,19.6,6.7,16.6,11.0,-2.2,81,69,63,30.08,29.92,21,1,21,0.03
2014-11-26,19.5,3.4,-7.7,14.2,-5.3,-16.7,81,66,58,30.59,30.07,25,8,26,0.02
2014-11-27,9.1,-1.3,-12.8,2.2,-11.2,-22.2,73,62,55,30.58,30.10,17,3,17,0.06
2014-11-28,19.6,14.1,9.1,13.3,6.1,1.9,76,70,66,30.10,29.58,24,3,24,0.01
2014-11-29,24.2,19.2,6.7,18.6,12.1,-4.2,83,73,60,29.88,29.39,27,6,27,0.00
2014-11-30,7.4,3.2,-2.9,-4.3,-10.1,-18.5,62,53,45,30.59,29.88,26,8,26,0.00
2014-12-1,6.0,-2.0,-10.5,-5.6,-16.5,-22.9,58,49,38,30.71,30.07,25,7,27,0.00
2014-12-2,18.3,13.4,6.2,6.4,2.8,-5.5,68,62,57,30.08,29.91,25,4,27,0.00
2014-12-3,17.4,12.5,7.8,5.7,2.0,-1.5,69,62,53,30.29,30.02,18,2,19,0.00
2014-12-4,31.9,22.9,9.7,19.7,12.9,1.0,75,65,57,30.23,29.96,18,4,19,0.00
2014-12-5,26.4,19.3,9.9,16.2,11.4,3.0,81,71,59,30.54,29.98,12,1,12,0.00
2014-12-6,27.0,17.0,4.5,18.2,9.0,-1.7,78,71,61,30.64,30.32,21,4,21,0.00
2014-12-7,36.0,32.2,26.9,31.1,25.7,18.1,85,77,68,30.32,29.94,29,8,30,0.00
2014-12-8,33.4,20.7,10.9,28.7,13.2,3.7,83,72,67,30.46,29.98,27,7,27,0.00
2014-12-9,24.0,15.3,6.8,19.2,9.7,0.2,83,78,72,30.49,30.28,21,4,21,0.00
2014-12-10,31.0,26.6,24.0,24.2,21.5,18.8,84,81,75,30.29,30.14,23,8,23,0.00
2014-12-11,31.9,30.0,27.5,28.2,26.6,23.2,88,87,84,30.17,30.07,17,5,20,0.00
2014-12-12,34.0,32.2,30.5,30.4,29.1,27.8,91,88,85,30.08,29.93,16,6,23,0.00
2014-12-13,42.2,36.8,32.8,40.6,34.6,30.5,94,92,90,29.93,29.79,10,4,16,0.00
2014-12-14,44.1,40.0,31.8,42.5,38.0,29.5,94,93,91,29.84,29.73,17,3,18,0.06
2014-12-15,31.7,22.6,12.6,29.6,18.3,5.6,92,83,73,30.24,29.84,34,11,34,0.04
2014-12-16,14.5,10.0,6.2,7.4,3.2,-0.9,76,73,71,30.38,30.24,21,5,22,0.04
2014-12-17,16.5,8.4,1.9,9.0,2.0,-4.5,77,74,70,30.40,30.32,10,0,10,0.04
2014-12-18,20.0,13.8,5.8,14.7,7.7,-0.1,80,76,73,30.33,30.18,14,2,14,0.04
2014-12-19,29.9,26.1,19.9,26.5,22.2,14.4,87,85,80,30.18,30.02,14,4,14,0.04
2014-12-20,31.2,29.7,27.9,27.4,25.9,24.0,87,86,84,30.06,29.90,23,4,23,0.04
2014-12-21,34.7,31.6,29.8,32.0,28.0,25.9,90,87,85,29.90,29.56,21,5,21,0.04
2014-12-22,38.8,36.0,32.6,37.0,33.5,29.9,93,91,88,29.74,29.51,12,3,17,0.08
2014-12-23,32.7,31.6,29.6,30.6,29.1,26.7,92,91,88,30.02,29.74,20,5,20,0.09
2014-12-24,29.7,27.5,25.6,26.8,23.8,21.2,89,86,83,30.00,29.48,13,1,14,0.00
2014-12-25,29.5,27.1,25.2,24.7,22.2,19.9,86,81,76,30.02,29.49,19,2,19,0.00
2014-12-26,25.9,20.3,6.6,19.9,13.6,-1.3,80,75,69,30.25,30.01,17,5,18,0.00
2014-12-27,24.4,13.6,1.6,16.9,6.3,-5.6,77,72,69,30.23,30.04,9,0,9,0.00
2014-12-28,22.9,3.1,-5.4,16.8,-6.3,-15.0,78,64,57,30.53,30.05,24,9,24,0.00
2014-12-29,0.5,-5.2,-11.1,-12.3,-15.7,-20.6,63,60,53,30.78,30.53,16,5,17,0.00
2014-12-30,1.7,-4.6,-10.2,-11.1,-15.9,-21.0,61,57,53,30.85,30.46,15,4,17,0.00
2014-12-31,21.6,10.2,-3.0,14.0,-0.5,-13.2,75,62,51,30.47,29.84,21,5,21,0.00
2015-1-1,26.8,17.8,3.3,19.2,7.4,-7.8,76,63,51,30.19,29.77,25,6,25,0.00
2015-1-2,35.5,23.1,3.4,24.9,13.4,-7.9,75,66,48,30.17,29.77,20,2,20,0.00